Location: Ar Ranvel
(48.3000°N, 4.8833°W)
Time: 07:52:35
(UTC+00:00)

Cosmos 1975 Rocket - Pass Details

Date: 16 June 2021
Orbit: 604 x 633 km, 82.5° (Epoch: 26 July)

Event Time Altitude Azimuth Distance (km) Brightness Sun altitude
Exits shadow 21:18:19 - 171° (S) 2,377 5.5 -7.6°
Reaches altitude 10° 21:19:22 10° 169° (SSE) 1,961 5.1 -7.7°
Maximum altitude 21:23:34 50° 94° (E) 787 3.3 -8.1°
Drops below altitude 10° 21:27:50 10° 19° (NNE) 1,995 6.1 -8.6°
Sets 21:30:07 0° 14° (NNE) 2,911 7.1 -8.8°
